sat.trackr.live / text

‹ back to catalog

SITRO-AIS-57

NORAD 67256 · 2025-313J

PAYLOAD ACTIVE UNKNOWN

§ Identity

Operator
Country
CIS
Launch date
2025-12-28
Launch site
VOSTO
Launch vehicle
Mass (kg)
RCS (m²)

External: N2YO · Heavens-Above · Gunter

§ Orbital elements

Epoch: 2026-05-25T03:36:37.332576Z

Period
94.57 min
Inclination
97.3930°
Eccentricity
0.0017310
Mean motion
15.22688352 rev/d
Perigee alt
485.8 km
Apogee alt
509.6 km
Semi-major
6,875.9 km
B*
3.9403e-4
RAAN
220.1005°
Arg perigee
85.5108°
Mean anomaly
274.8105°
Rev number
2,244

§ Raw data

SITRO-AIS-571 67256U 25313J   26145.15043209  .00009152  00000+0  39403-3 0  99902 67256  97.3930 220.1005 0017310  85.5108 274.8105 15.22688352 22449

JSON: /api/v1/satellites/67256 · /tle

For live sub-satellite position, see the globe view (requires WebGL).

§ Visibility from observer

Set your observer location to see the next 7 days of passes ≥ 10°. The values pass through the URL so the page stays shareable.

No JS? Fill the form by hand. The geolocation button needs JavaScript.